📊 Raw Sensor Data
Showing records 52151 to 52175 of 85,267 total
| ID | Distance (ft) | Battery V | Battery A | Int Temp (°F) | Int Humid (%) | Ext Temp (°F) | Solar V | RSSI | SNR | Time Stamp |
|---|---|---|---|---|---|---|---|---|---|---|
| 33129 | 14.3 | 3.76 | 0 | 79 | 38 | 71 | 5.10 | -71 | 8 | 02/22/2025 04:15 PM |
| 33128 | 14.3 | 3.76 | 0 | 83 | 36 | 70 | 5.10 | -71 | 7 | 02/22/2025 04:00 PM |
| 33127 | 14.3 | 3.76 | 0 | 81 | 36 | 70 | 5.10 | -71 | 7 | 02/22/2025 03:45 PM |
| 33126 | 14.3 | 3.76 | 0 | 79 | 37 | 68 | 5.10 | -71 | 8 | 02/22/2025 03:30 PM |
| 33125 | 14.4 | 3.76 | 0 | 80 | 37 | 68 | 5.10 | -72 | 7 | 02/22/2025 03:15 PM |
| 33124 | 14.4 | 3.76 | 0 | 78 | 39 | 68 | 5.10 | -71 | 7 | 02/22/2025 03:00 PM |
| 33123 | 14.4 | 3.86 | 0 | 83 | 36 | 67 | 5.10 | -71 | 8 | 02/22/2025 02:45 PM |
| 33122 | 14.4 | 3.85 | 0 | 83 | 35 | 71 | 5.10 | -72 | 8 | 02/22/2025 02:30 PM |
| 33121 | 14.4 | 3.76 | 0 | 77 | 39 | 71 | 5.10 | -71 | 8 | 02/22/2025 02:15 PM |
| 33120 | 14.4 | 3.76 | 0 | 81 | 37 | 70 | 5.10 | -71 | 8 | 02/22/2025 02:00 PM |
| 33119 | 14.5 | 3.76 | 0 | 84 | 34 | 70 | 5.10 | -72 | 6 | 02/22/2025 01:30 PM |
| 33118 | 14.4 | 4.01 | 0 | 82 | 34 | 71 | 5.10 | -71 | 7 | 02/22/2025 01:15 PM |
| 33117 | 14.5 | 3.76 | 0 | 80 | 35 | 68 | 5.10 | -72 | 7 | 02/22/2025 01:00 PM |
| 33116 | 14.5 | 3.81 | 0 | 79 | 34 | 68 | 5.10 | -72 | 8 | 02/22/2025 12:45 PM |
| 33115 | 14.5 | 4.04 | 0 | 78 | 34 | 68 | 5.10 | -71 | 8 | 02/22/2025 12:30 PM |
| 33114 | 14.5 | 3.76 | 0 | 77 | 34 | 67 | 5.10 | -71 | 8 | 02/22/2025 12:15 PM |
| 33113 | 14.5 | 3.76 | 0 | 76 | 34 | 67 | 5.10 | -71 | 7 | 02/22/2025 12:00 PM |
| 33112 | 14.5 | 3.81 | 0 | 75 | 34 | 67 | 5.10 | -72 | 7 | 02/22/2025 11:45 AM |
| 33111 | 14.5 | 4.04 | 0 | 74 | 34 | 68 | 5.10 | -71 | 8 | 02/22/2025 11:30 AM |
| 33110 | 14.5 | 3.76 | 0 | 72 | 34 | 65 | 5.10 | -71 | 8 | 02/22/2025 11:15 AM |
| 33109 | 14.5 | 3.81 | 0 | 70 | 33 | 64 | 5.10 | -71 | 8 | 02/22/2025 11:00 AM |
| 33108 | 14.5 | 3.84 | 0 | 68 | 34 | 64 | 5.10 | -71 | 7 | 02/22/2025 10:45 AM |
| 33107 | 14.5 | 3.76 | 0 | 66 | 33 | 66 | 5.10 | -72 | 7 | 02/22/2025 10:30 AM |
| 33106 | 14.6 | 3.76 | 0 | 64 | 33 | 66 | 5.10 | -76 | 8 | 02/22/2025 10:15 AM |
| 33105 | 14.5 | 3.76 | 0 | 60 | 34 | 60 | 5.10 | -76 | 8 | 02/22/2025 10:00 AM |